Time,TemperatureF,DewpointF,PressureIn,WindDirection,WindDirectionDegrees,WindSpeedMPH,WindSpeedGustMPH,Humidity,HourlyPrecipIn,Conditions,Clouds,dailyrainin,SolarRadiationWatts/m^2,SoftwareType,DateUTC
2013-11-02 00:07:00,52.0,25.0,30.11,NW,325,0.0,0.0,35,0.00,,,0.00,0,weatherlink.com 1.10,2013-11-02 06:07:00,
2013-11-02 00:22:00,51.5,25.0,30.11,NW,325,0.0,0.0,36,0.00,,,0.00,0,weatherlink.com 1.10,2013-11-02 06:22:00,
2013-11-02 00:37:00,50.7,25.0,30.12,NW,325,0.0,0.0,37,0.00,,,0.00,0,weatherlink.com 1.10,2013-11-02 06:37:00,
2013-11-02 00:52:00,50.6,25.0,30.12,NW,325,0.0,0.0,37,0.00,,,0.00,0,weatherlink.com 1.10,2013-11-02 06:52:00,
2013-11-02 01:07:00,50.2,26.0,30.12,NW,325,0.0,0.0,39,0.00,,,0.00,0,weatherlink.com 1.10,2013-11-02 07:07:00,
2013-11-02 01:22:00,49.5,26.0,30.11,NW,325,0.0,0.0,40,0.00,,,0.00,0,weatherlink.com 1.10,2013-11-02 07:22:00,
2013-11-02 01:37:00,49.0,26.0,30.11,NW,325,0.0,0.0,41,0.00,,,0.00,0,weatherlink.com 1.10,2013-11-02 07:37:00,
2013-11-02 01:52:00,48.6,26.0,30.11,NW,325,0.0,0.0,42,0.00,,,0.00,0,weatherlink.com 1.10,2013-11-02 07:52:00,
2013-11-02 02:07:00,48.5,26.0,30.12,NW,325,0.0,0.0,42,0.00,,,0.00,0,weatherlink.com 1.10,2013-11-02 08:07:00,
2013-11-02 02:22:00,48.3,26.0,30.12,NW,325,0.0,0.0,42,0.00,,,0.00,0,weatherlink.com 1.10,2013-11-02 08:22:00,
2013-11-02 02:37:00,48.2,26.0,30.12,NW,325,0.0,0.0,42,0.00,,,0.00,0,weatherlink.com 1.10,2013-11-02 08:37:00,
2013-11-02 02:52:00,47.9,26.0,30.13,NW,325,0.0,0.0,42,0.00,,,0.00,0,weatherlink.com 1.10,2013-11-02 08:52:00,
2013-11-02 03:07:00,47.8,26.0,30.12,NW,325,0.0,0.0,43,0.00,,,0.00,0,weatherlink.com 1.10,2013-11-02 09:07:00,
2013-11-02 03:22:00,47.5,26.0,30.12,NW,325,0.0,0.0,44,0.00,,,0.00,0,weatherlink.com 1.10,2013-11-02 09:22:00,
2013-11-02 03:37:00,47.3,26.0,30.12,NW,325,0.0,0.0,44,0.00,,,0.00,0,weatherlink.com 1.10,2013-11-02 09:37:00,
2013-11-02 03:52:00,47.5,27.0,30.12,NW,325,0.0,0.0,45,0.00,,,0.00,0,weatherlink.com 1.10,2013-11-02 09:52:00,
2013-11-02 04:07:00,47.1,27.0,30.12,NW,325,0.0,0.0,45,0.00,,,0.00,0,weatherlink.com 1.10,2013-11-02 10:07:00,
2013-11-02 04:22:00,46.9,26.0,30.12,NW,325,0.0,0.0,45,0.00,,,0.00,0,weatherlink.com 1.10,2013-11-02 10:22:00,
2013-11-02 04:38:00,45.9,27.0,30.12,NW,325,0.0,0.0,47,0.00,,,0.00,0,weatherlink.com 1.10,2013-11-02 10:38:00,
2013-11-02 04:53:00,45.0,26.0,30.13,NW,325,0.0,0.0,48,0.00,,,0.00,0,weatherlink.com 1.10,2013-11-02 10:53:00,
2013-11-02 05:08:00,44.9,26.0,30.13,NW,325,0.0,0.0,47,0.00,,,0.00,0,weatherlink.com 1.10,2013-11-02 11:08:00,
2013-11-02 05:23:00,44.6,25.0,30.14,NW,325,0.0,0.0,46,0.00,,,0.00,0,weatherlink.com 1.10,2013-11-02 11:23:00,
2013-11-02 05:38:00,44.3,25.0,30.14,NW,325,0.0,0.0,47,0.00,,,0.00,0,weatherlink.com 1.10,2013-11-02 11:38:00,
2013-11-02 05:53:00,43.2,24.0,30.15,NW,325,0.0,0.0,47,0.00,,,0.00,0,weatherlink.com 1.10,2013-11-02 11:53:00,
2013-11-02 06:08:00,42.4,23.0,30.16,NW,325,0.0,2.0,47,0.00,,,0.00,0,weatherlink.com 1.10,2013-11-02 12:08:00,
2013-11-02 06:23:00,42.3,23.0,30.16,NW,325,0.0,2.0,47,0.00,,,0.00,0,weatherlink.com 1.10,2013-11-02 12:23:00,
2013-11-02 06:38:00,42.4,24.0,30.16,NW,325,0.0,0.0,48,0.00,,,0.00,0,weatherlink.com 1.10,2013-11-02 12:38:00,
2013-11-02 06:53:00,42.6,24.0,30.16,NW,325,0.0,0.0,48,0.00,,,0.00,0,weatherlink.com 1.10,2013-11-02 12:53:00,
2013-11-02 07:08:00,43.0,24.0,30.17,NW,325,0.0,0.0,47,0.00,,,0.00,0,weatherlink.com 1.10,2013-11-02 13:08:00,
2013-11-02 07:23:00,43.4,24.0,30.18,NW,325,0.0,0.0,47,0.00,,,0.00,0,weatherlink.com 1.10,2013-11-02 13:23:00,
2013-11-02 07:38:00,43.5,24.0,30.18,NW,325,0.0,0.0,47,0.00,,,0.00,12,weatherlink.com 1.10,2013-11-02 13:38:00,
2013-11-02 07:53:00,44.6,24.0,30.19,NW,325,0.0,0.0,45,0.00,,,0.00,26,weatherlink.com 1.10,2013-11-02 13:53:00,
2013-11-02 08:08:00,46.2,25.0,30.19,NW,325,2.0,2.0,43,0.00,,,0.00,70,weatherlink.com 1.10,2013-11-02 14:08:00,
2013-11-02 08:23:00,47.9,26.0,30.20,NW,325,0.0,1.0,42,0.00,,,0.00,125,weatherlink.com 1.10,2013-11-02 14:23:00,
2013-11-02 08:38:00,49.4,25.0,30.20,NW,325,0.0,2.0,39,0.00,,,0.00,188,weatherlink.com 1.10,2013-11-02 14:38:00,
2013-11-02 08:53:00,51.5,26.0,30.20,NW,325,1.0,1.0,37,0.00,,,0.00,246,weatherlink.com 1.10,2013-11-02 14:53:00,
2013-11-02 09:09:00,52.8,26.0,30.21,NW,325,0.0,2.0,35,0.00,,,0.00,301,weatherlink.com 1.10,2013-11-02 15:09:00,
2013-11-02 09:23:00,55.0,26.0,30.21,NW,325,0.0,0.0,33,0.00,,,0.00,341,weatherlink.com 1.10,2013-11-02 15:23:00,
2013-11-02 09:39:00,57.3,26.0,30.21,NW,325,0.0,0.0,30,0.00,,,0.00,388,weatherlink.com 1.10,2013-11-02 15:39:00,
2013-11-02 09:54:00,58.5,26.0,30.21,NW,325,0.0,2.0,29,0.00,,,0.00,432,weatherlink.com 1.10,2013-11-02 15:54:00,
2013-11-02 10:09:00,59.7,27.0,30.21,NW,325,0.0,2.0,29,0.00,,,0.00,471,weatherlink.com 1.10,2013-11-02 16:09:00,
2013-11-02 10:24:00,60.7,27.0,30.21,NW,325,0.0,1.0,28,0.00,,,0.00,508,weatherlink.com 1.10,2013-11-02 16:24:00,
2013-11-02 10:39:00,62.0,27.0,30.20,NW,325,2.0,3.0,26,0.00,,,0.00,545,weatherlink.com 1.10,2013-11-02 16:39:00,
2013-11-02 10:54:00,62.5,27.0,30.20,NNW,331,0.0,3.0,26,0.00,,,0.00,575,weatherlink.com 1.10,2013-11-02 16:54:00,
2013-11-02 11:09:00,63.2,27.0,30.20,NNW,329,0.0,4.0,25,0.00,,,0.00,603,weatherlink.com 1.10,2013-11-02 17:09:00,
2013-11-02 11:24:00,64.1,27.0,30.19,WNW,284,4.0,8.0,25,0.00,,,0.00,628,weatherlink.com 1.10,2013-11-02 17:24:00,
2013-11-02 11:39:00,64.7,27.0,30.18,SSE,155,1.0,7.0,24,0.00,,,0.00,647,weatherlink.com 1.10,2013-11-02 17:39:00,
2013-11-02 11:54:00,65.2,26.0,30.17,SE,132,0.0,6.0,23,0.00,,,0.00,664,weatherlink.com 1.10,2013-11-02 17:54:00,
2013-11-02 12:09:00,66.0,27.0,30.16,SSE,149,1.0,7.0,23,0.00,,,0.00,679,weatherlink.com 1.10,2013-11-02 18:09:00,
2013-11-02 12:24:00,66.3,26.0,30.15,SE,146,2.0,13.0,22,0.00,,,0.00,687,weatherlink.com 1.10,2013-11-02 18:24:00,
2013-11-02 12:39:00,67.2,27.0,30.14,SE,139,1.0,7.0,22,0.00,,,0.00,693,weatherlink.com 1.10,2013-11-02 18:39:00,
2013-11-02 12:54:00,68.1,27.0,30.12,SE,134,3.0,10.0,21,0.00,,,0.00,694,weatherlink.com 1.10,2013-11-02 18:54:00,
2013-11-02 13:09:00,68.1,27.0,30.11,ESE,121,0.0,9.0,21,0.00,,,0.00,691,weatherlink.com 1.10,2013-11-02 19:09:00,
2013-11-02 13:24:00,68.9,27.0,30.10,South,175,7.0,14.0,21,0.00,,,0.00,684,weatherlink.com 1.10,2013-11-02 19:24:00,
2013-11-02 13:39:00,69.1,27.0,30.09,SSE,160,2.0,11.0,21,0.00,,,0.00,671,weatherlink.com 1.10,2013-11-02 19:39:00,
2013-11-02 13:54:00,69.4,27.0,30.08,ESE,119,5.0,11.0,20,0.00,,,0.00,657,weatherlink.com 1.10,2013-11-02 19:54:00,
2013-11-02 14:10:00,70.0,27.0,30.07,SE,140,0.0,8.0,20,0.00,,,0.00,640,weatherlink.com 1.10,2013-11-02 20:10:00,
2013-11-02 14:25:00,70.4,26.0,30.06,East,99,5.0,10.0,19,0.00,,,0.00,619,weatherlink.com 1.10,2013-11-02 20:25:00,
2013-11-02 14:40:00,70.9,27.0,30.05,SSE,148,1.0,10.0,19,0.00,,,0.00,592,weatherlink.com 1.10,2013-11-02 20:40:00,
2013-11-02 14:55:00,71.2,27.0,30.04,ESE,105,1.0,10.0,19,0.00,,,0.00,561,weatherlink.com 1.10,2013-11-02 20:55:00,
2013-11-02 15:10:00,71.3,27.0,30.03,SE,140,0.0,8.0,19,0.00,,,0.00,529,weatherlink.com 1.10,2013-11-02 21:10:00,
2013-11-02 15:25:00,71.7,27.0,30.02,East,98,1.0,9.0,19,0.00,,,0.00,497,weatherlink.com 1.10,2013-11-02 21:25:00,
2013-11-02 15:40:00,71.8,26.0,30.02,SSE,153,3.0,11.0,18,0.00,,,0.00,455,weatherlink.com 1.10,2013-11-02 21:40:00,
2013-11-02 15:55:00,72.0,27.0,30.01,SSE,150,3.0,7.0,19,0.00,,,0.00,410,weatherlink.com 1.10,2013-11-02 21:55:00,
2013-11-02 16:10:00,72.4,26.0,30.00,SE,141,2.0,8.0,18,0.00,,,0.00,366,weatherlink.com 1.10,2013-11-02 22:10:00,
2013-11-02 16:25:00,72.0,26.0,30.00,SE,133,7.0,8.0,18,0.00,,,0.00,320,weatherlink.com 1.10,2013-11-02 22:25:00,
2013-11-02 16:40:00,72.4,26.0,30.00,SE,126,0.0,8.0,18,0.00,,,0.00,274,weatherlink.com 1.10,2013-11-02 22:40:00,
2013-11-02 16:55:00,72.3,26.0,29.99,SE,140,1.0,7.0,18,0.00,,,0.00,214,weatherlink.com 1.10,2013-11-02 22:55:00,
2013-11-02 17:10:00,71.6,27.0,29.99,SE,126,2.0,7.0,19,0.00,,,0.00,151,weatherlink.com 1.10,2013-11-02 23:10:00,
2013-11-02 17:25:00,71.3,27.0,29.99,ESE,121,0.0,9.0,19,0.00,,,0.00,95,weatherlink.com 1.10,2013-11-02 23:25:00,
2013-11-02 17:40:00,71.2,27.0,29.99,ESE,120,1.0,4.0,19,0.00,,,0.00,47,weatherlink.com 1.10,2013-11-02 23:40:00,
2013-11-02 17:55:00,70.4,26.0,29.98,ESE,118,0.0,5.0,19,0.00,,,0.00,12,weatherlink.com 1.10,2013-11-02 23:55:00,
2013-11-02 18:10:00,69.5,27.0,29.98,ESE,119,0.0,3.0,20,0.00,,,0.00,5,weatherlink.com 1.10,2013-11-03 00:10:00,
2013-11-02 18:25:00,68.4,27.0,29.98,ESE,119,0.0,4.0,21,0.00,,,0.00,0,weatherlink.com 1.10,2013-11-03 00:25:00,
2013-11-02 18:40:00,67.4,26.0,29.99,ESE,119,1.0,4.0,21,0.00,,,0.00,0,weatherlink.com 1.10,2013-11-03 00:40:00,
2013-11-02 18:55:00,66.6,26.0,29.99,ESE,118,1.0,3.0,22,0.00,,,0.00,0,weatherlink.com 1.10,2013-11-03 00:55:00,
2013-11-02 19:10:00,66.0,26.0,29.99,ESE,118,2.0,4.0,22,0.00,,,0.00,0,weatherlink.com 1.10,2013-11-03 01:10:00,
2013-11-02 19:25:00,65.4,25.0,29.99,ESE,119,0.0,7.0,22,0.00,,,0.00,0,weatherlink.com 1.10,2013-11-03 01:25:00,
2013-11-02 19:40:00,64.8,25.0,29.99,ESE,119,0.0,7.0,22,0.00,,,0.00,0,weatherlink.com 1.10,2013-11-03 01:40:00,
2013-11-02 19:55:00,63.8,24.0,29.99,ESE,116,1.0,4.0,22,0.00,,,0.00,0,weatherlink.com 1.10,2013-11-03 01:55:00,
2013-11-02 20:10:00,62.5,23.0,29.99,ESE,115,2.0,4.0,22,0.00,,,0.00,0,weatherlink.com 1.10,2013-11-03 02:10:00,
2013-11-02 20:25:00,61.1,23.0,29.98,ESE,107,7.0,7.0,23,0.00,,,0.00,0,weatherlink.com 1.10,2013-11-03 02:25:00,
2013-11-02 20:40:00,60.5,22.0,29.98,ESE,103,2.0,7.0,23,0.00,,,0.00,0,weatherlink.com 1.10,2013-11-03 02:40:00,
2013-11-02 20:55:00,61.1,23.0,29.98,East,99,0.0,7.0,23,0.00,,,0.00,0,weatherlink.com 1.10,2013-11-03 02:55:00,
2013-11-02 21:10:00,61.2,23.0,29.98,ESE,102,0.0,8.0,23,0.00,,,0.00,0,weatherlink.com 1.10,2013-11-03 03:10:00,
2013-11-02 21:25:00,60.3,22.0,29.98,ESE,105,1.0,4.0,23,0.00,,,0.00,0,weatherlink.com 1.10,2013-11-03 03:25:00,
2013-11-02 21:40:00,60.0,22.0,29.98,ESE,105,0.0,7.0,23,0.00,,,0.00,0,weatherlink.com 1.10,2013-11-03 03:40:00,
2013-11-02 21:55:00,59.6,22.0,29.97,ESE,105,0.0,7.0,23,0.00,,,0.00,0,weatherlink.com 1.10,2013-11-03 03:55:00,
2013-11-02 22:10:00,59.0,21.0,29.97,ESE,105,0.0,4.0,23,0.00,,,0.00,0,weatherlink.com 1.10,2013-11-03 04:10:00,
2013-11-02 22:25:00,58.7,22.0,29.97,ESE,105,0.0,4.0,24,0.00,,,0.00,0,weatherlink.com 1.10,2013-11-03 04:25:00,
2013-11-02 22:40:00,58.9,22.0,29.97,ESE,104,2.0,5.0,24,0.00,,,0.00,0,weatherlink.com 1.10,2013-11-03 04:40:00,
2013-11-02 22:55:00,58.4,22.0,29.97,ESE,103,0.0,3.0,24,0.00,,,0.00,0,weatherlink.com 1.10,2013-11-03 04:55:00,
2013-11-02 23:10:00,57.6,22.0,29.96,ESE,103,0.0,1.0,25,0.00,,,0.00,0,weatherlink.com 1.10,2013-11-03 05:10:00,
2013-11-02 23:25:00,56.3,22.0,29.96,ESE,103,0.0,1.0,26,0.00,,,0.00,0,weatherlink.com 1.10,2013-11-03 05:25:00,
2013-11-02 23:40:00,56.1,22.0,29.95,ESE,103,0.0,1.0,27,0.00,,,0.00,0,weatherlink.com 1.10,2013-11-03 05:40:00,
2013-11-02 23:55:00,57.8,22.0,29.94,ESE,103,0.0,6.0,25,0.00,,,0.00,0,weatherlink.com 1.10,2013-11-03 05:55:00,